カタログに戻る

SL-14 DEB

運用中PO
NORAD 26021·DEBRIS·🇷🇺 Russia

打ち上げ Sep 28, 1991 から Plesetsk Cosmodrome

Loading…

次のパス (今後24時間)

TLE

最新Source: Space-Track

元期: Sep 13, 2026, 17:41 UTC

1 26021U 91068AG  26256.73730951  .00000676  00000-0  21281-2 0  9996
2 26021  81.7783 339.1261 0221653 239.4626 248.0937 12.95071894638010

AllMySatでSL-14 DEBをリアルタイム追跡

Download on the App Store